Flag for Finland Weather past 2 weeks in Ivalo, Finland

34 °F

Low clouds.

Feels Like: 29 °F
Forecast: 29 / 36 °F
Wind: 6 mph from Southwest

Location: Ivalo

Current Time: Nov 26, 2015 at 2:55:39 AM

Latest Report: Nov 26, 2015 at 1:50 AM

Visibility: N/A

Pressure: 29.15 "Hg

Humidity: 93%

Dew point: 32 °F

Location of IvaloLocation

Historic Weather in Ivalo — Graph


Ivalo temperature yesterday

Maximum temperature yesterday: 36 °F (at 4:50 PM)
Minimum temperature yesterday: 30 °F (at 2:50 AM)
Average temperature yesterday: 33 °F

Past Weeks' High & Low Weather Summary

High36 °F (Nov 14, 10:50 PM)100% (Nov 18, 10:20 PM)29.89 "Hg (Nov 18, 10:20 PM)
Low1 °F (Nov 23, 6:50 AM)78% (Nov 23, 2:50 PM)29.18 "Hg (Nov 25, 8:50 PM)
Average24 °F88%29.52 "Hg
* Reported Nov 11 12:50 AM — Nov 26 12:20 AM, Ivalo, Weather by CustomWeather, © 2015

Note: Actual official high and low records may vary slightly from our data, if they occured in-between our weather recording intervals... More about our weather records


Ivalo weather history for previous 24 hours

Time TempWeatherWind HumidityBarometerVisibility
12:20 AM
Thu, Nov 26
34 °FOvercast.8 mph93%29.18 "HgN/A
11:50 PM
Wed, Nov 25
34 °FOvercast.9 mph93%29.18 "HgN/A
11:20 PM34 °FLight rain. Mostly cloudy.9 mph93%29.18 "HgN/A
10:50 PM34 °FLight rain. Overcast.8 mph93%29.18 "HgN/A
10:20 PM34 °FLight rain. Overcast.9 mph93%29.18 "HgN/A
9:50 PM34 °FLight rain. Mostly cloudy.7 mph93%29.18 "HgN/A
9:20 PM34 °FSleet. Overcast.6 mph93%29.18 "HgN/A
8:50 PM34 °FLight rain. Overcast.5 mph93%29.18 "HgN/A
8:20 PM34 °FLight rain. Mostly cloudy.5 mph93%29.21 "HgN/A
7:50 PM34 °FLight rain. Overcast.6 mph93%29.21 "HgN/A
7:20 PM34 °FLight rain. Mostly cloudy.8 mph93%29.21 "HgN/A
6:50 PM36 °FPassing clouds.9 mph87%29.21 "HgN/A
6:20 PM36 °FPassing clouds.10 mph87%29.21 "HgN/A
5:50 PM36 °FOvercast.7 mph87%29.24 "HgN/A
5:20 PM36 °FOvercast.8 mph87%29.24 "HgN/A
4:50 PM36 °FOvercast.8 mph87%29.24 "HgN/A
4:20 PM34 °FLow clouds.8 mph93%29.24 "HgN/A
3:50 PM34 °FOvercast.7 mph93%29.24 "HgN/A
3:20 PM34 °FOvercast.5 mph93%29.27 "HgN/A
2:50 PM34 °FPassing clouds.3 mph93%29.27 "HgN/A
2:20 PM34 °FMostly cloudy.5 mph87%29.27 "HgN/A
1:50 PM34 °FMostly cloudy.8 mph87%29.27 "HgN/A
1:20 PM34 °FSnow flurries. Broken clouds.9 mph87%29.27 "HgN/A
12:50 PM32 °FLow clouds.2 mph93%29.27 "HgN/A
12:20 PM32 °FOvercast.10 mph87%29.27 "HgN/A
11:50 AM32 °FPartly sunny.6 mph87%29.27 "HgN/A
11:20 AM30 °FPartly sunny.7 mph93%29.27 "HgN/A
10:50 AM30 °FBroken clouds.6 mph86%29.30 "HgN/A
10:20 AM30 °FLight snow. Overcast.9 mph86%29.27 "HgN/A
9:50 AM30 °FSnow flurries. Overcast.5 mph93%29.27 "HgN/A
8:50 AM30 °FLight snow. Overcast.8 mph93%29.27 "Hg4 mi
7:50 AM30 °FLight snow. Overcast.7 mph93%29.27 "Hg6 mi
7:20 AM32 °FSnow flurries. Overcast.6 mph87%29.27 "HgN/A
6:50 AM32 °FSnow flurries. Overcast.7 mph87%29.27 "HgN/A
5:50 AM32 °FOvercast.9 mph87%29.27 "HgN/A
5:20 AM32 °FOvercast.8 mph80%29.27 "HgN/A
4:50 AM30 °FOvercast.8 mph93%29.27 "HgN/A
4:20 AM30 °FOvercast.8 mph86%29.27 "HgN/A
3:50 AM30 °FOvercast.7 mph86%29.27 "HgN/A
3:20 AM30 °FOvercast.8 mph86%29.27 "HgN/A
2:50 AM30 °FOvercast.6 mph86%29.30 "HgN/A
Weather by CustomWeather, © 2015

See weather overviewHow to use our weather pages